Back to catalog

STARLINK-30219

AliveCommunicationsVLEO
NORAD 57507·PAYLOAD·🇺🇸 United States

Launched Aug 7, 2023 from Cape Canaveral Space Force Station

Loading…

Next Passes (next 24 hours)

TLE

FreshSource: CelesTrak SupGP

Epoch: Sep 14, 2026, 22:31 UTC

1 57507C 23113N   26257.93868056 -.00022561  00000+0 -81693-3 0  2575
2 57507  43.0027  24.1705 0001550 267.3798 118.9920 15.27598586    11

Track STARLINK-30219 in real time with AllMySat

Download on the App Store